Flag for U.S.A. Weather past 2 weeks in Billings, Montana, U.S.A.

Now
61 °F

Broken clouds.


Feels Like: 61 °F
Forecast: 54 / 76 °F
Wind: 6 mph from East

Location: Billings Logan International Airport

Current Time: Jul 6, 2015 at 12:02:41 PM

Latest Report: Jul 6, 2015 at 10:53 AM


Visibility: 10 mi

Pressure: 30.24 "Hg (27.04 "Hg at 946m altitude)

Humidity: 65%

Dew point: 49 °F

Location of BillingsLocation

Historic Weather in Billings — Graph

°F

Billings temperature yesterday

Maximum temperature yesterday: 75 °F (at 12:53 AM)
Minimum temperature yesterday: 56 °F (at 11:53 PM)
Average temperature yesterday: 63 °F

Past Weeks' High & Low Weather Summary

 TemperatureHumidityPressure
High99 °F (Jul 4, 3:53 PM)84% (Jun 25, 6:53 AM)30.26 "Hg (Jun 25, 6:53 AM)
Low54 °F (Jun 22, 5:53 AM)10% (Jul 4, 2:53 PM)29.62 "Hg (Jul 4, 6:53 PM)
Average75 °F46%29.96 "Hg
* Reported Jun 21 12:53 PM — Jul 6 10:53 AM, Billings, Weather by CustomWeather, © 2015

Note: Actual official high and low records may vary slightly from our data, if they occured in-between our weather recording intervals... More about our weather records

Advertising

Billings weather history for previous 24 hours

 ConditionsComfort  
Time TempWeatherWind HumidityBarometerVisibility
10:53 AM
Mon, Jul 6
61 °FBroken clouds.6 mph65%30.24 "Hg10 mi
9:53 AM57 °FMostly cloudy.3 mph74%30.26 "Hg10 mi
8:53 AM56 °FMostly cloudy.7 mph77%30.26 "Hg10 mi
7:53 AM55 °FCloudy.8 mph80%30.25 "Hg10 mi
6:53 AM55 °FOvercast.5 mph80%30.25 "Hg10 mi
5:53 AM55 °FOvercast.5 mph77%30.24 "Hg10 mi
4:53 AM55 °FOvercast.No wind74%30.23 "Hg10 mi
3:53 AM55 °FOvercast.3 mph74%30.22 "Hg10 mi
2:53 AM55 °FOvercast.5 mph74%30.21 "Hg10 mi
1:53 AM55 °FOvercast.7 mph74%30.21 "Hg10 mi
12:53 AM55 °FMostly cloudy.7 mph74%30.20 "Hg10 mi
11:53 PM
Sun, Jul 5
56 °FOvercast.10 mph72%30.20 "Hg10 mi
10:53 PM57 °FOvercast.7 mph69%30.19 "Hg9 mi
9:53 PM58 °FMostly cloudy.8 mph67%30.17 "Hg7 mi
8:53 PM59 °FMostly cloudy.15 mph67%30.15 "Hg6 mi
7:53 PM60 °FMostly cloudy.12 mph72%30.11 "Hg8 mi
7:03 PM60 °FThunderstorms. More clouds than sun.9 mph75%30.15 "Hg7 mi
6:53 PM61 °FLight rain. Mostly cloudy.3 mph65%30.11 "Hg4 mi
5:53 PM64 °FOvercast.7 mph52%30.08 "Hg6 mi
4:53 PM64 °FMostly cloudy.10 mph54%30.08 "Hg5 mi
3:53 PM64 °FMostly cloudy.12 mph56%30.06 "Hg4 mi
2:53 PM64 °FOvercast.12 mph54%30.05 "Hg7 mi
1:53 PM63 °FOvercast.13 mph58%30.05 "Hg7 mi
12:53 PM62 °FMore clouds than sun.9 mph60%30.05 "Hg7 mi
Weather by CustomWeather, © 2015

See weather overviewHow to use our weather pages